Fairfield, PA

8:18 PM EST on February 27, 2017 (GMT -0500)
Fountain Dale

Weather History for KRYT - March, 2014

Change the Weather History Date:

Wednesday, March 12, 2014

  Actual Average (KHGR) Record (KHGR)
Temperature  
Mean Temperature 47 °F -  
Max Temperature 64 °F 45 °F 68 °F (2012)
Min Temperature 26 °F 29 °F 17 °F (1998)
Degree Days  
Heating Degree Days 18    
Moisture  
Dew Point 37 °F    
Average Humidity 66    
Maximum Humidity 86    
Minimum Humidity 44    
Precipitation  
Precipitation 0.24 in - - ()
Sea Level Pressure  
Sea Level Pressure 29.30 in    
Wind  
Wind Speed 3 mph (West)    
Max Wind Speed 20 mph    
Max Gust Speed 40 mph    
Visibility 9 miles    
Events Rain    
Averages and records for this station are not official NWS values.
T = Trace of Precipitation, MM = Missing Value Source: NWS Daily Summary

Daily Weather History Graph

Daily Weather History Graph

Search for Another Location

Airport or City:

Trip Planner

Search our weather history database for the weather conditions in past years. The results will help you decide how hot, cold, wet, or windy it might be!

Date:

Astronomy

Mar. 12, 2014 Rise Set
Actual Time 7:25 AM EDT 7:13 PM EDT
Civil Twilight 6:59 AM EDT 7:40 PM EDT
Nautical Twilight 6:27 AM EDT 8:11 PM EDT
Astronomical Twilight 5:56 AM EDT 8:43 PM EDT
Moon 3:42 PM EDT (3/12) 4:55 AM EDT (3/12)
Length of Visible Light 12h 41m
Length of Day
11h 47m
Waxing Gibbous, 85% of the Moon is Illuminated
Mar 12
Waxing Gibbous
Mar 16
Full
Mar 23
Last Quarter
Mar 30
New
Apr 7
First Quarter

Hourly Weather History & Observations

Time (EDT) Temp. Windchill Dew Point Humidity Pressure Visibility Wind Dir Wind Speed Gust Speed Precip Events Conditions
12:53 AM 46.0 °F - 36.0 °F 68% 29.63 in 10.0 mi Calm Calm - N/A   Clear
1:53 AM 48.0 °F - 36.0 °F 63% 29.60 in 10.0 mi Calm Calm - N/A   Clear
2:53 AM 46.9 °F - 36.0 °F 66% 29.55 in 10.0 mi Calm Calm - N/A   Clear
3:53 AM 45.0 °F - 35.1 °F 68% 29.53 in 10.0 mi Calm Calm - N/A   Clear
4:53 AM 48.0 °F - 35.1 °F 61% 29.50 in 10.0 mi Calm Calm - N/A   Clear
5:53 AM 44.1 °F - 36.0 °F 73% 29.48 in 10.0 mi Calm Calm - N/A   Clear
6:53 AM 45.0 °F - 35.1 °F 68% 29.46 in 10.0 mi Calm Calm - N/A   Scattered Clouds
7:53 AM 45.0 °F - 36.0 °F 71% 29.44 in 10.0 mi Calm Calm - N/A   Mostly Cloudy
8:53 AM 45.0 °F - 37.0 °F 74% 29.40 in 10.0 mi Calm Calm - N/A   Mostly Cloudy
9:53 AM 48.0 °F - 37.0 °F 66% 29.36 in 10.0 mi Calm Calm - N/A   Mostly Cloudy
10:53 AM 53.1 °F - 37.0 °F 55% 29.29 in 10.0 mi Calm Calm - N/A   Scattered Clouds
11:53 AM 59.0 °F - 37.0 °F 44% 29.22 in 10.0 mi WSW 4.6 mph - N/A   Overcast
12:53 PM 57.0 °F - 39.9 °F 53% 29.20 in 9.0 mi Variable 6.9 mph - 0.00 in Rain Light Rain
1:53 PM 55.0 °F - 43.0 °F 64% 29.14 in 10.0 mi Calm Calm - 0.02 in   Overcast
2:53 PM 55.9 °F - 46.0 °F 69% 29.08 in 10.0 mi Calm Calm - N/A   Overcast
3:53 PM 64.9 °F - 51.1 °F 61% 29.03 in 10.0 mi WSW 10.4 mph 16.1 mph N/A   Mostly Cloudy
4:53 PM 57.0 °F - 51.1 °F 81% 29.05 in 2.0 mi Variable 5.8 mph 27.6 mph 0.05 in Rain Light Rain
5:22 PM 53.6 °F - 48.2 °F 82% 29.07 in 1.0 mi Variable 4.6 mph 18.4 mph 0.13 in Rain Heavy Rain
5:32 PM 53.6 °F - 48.2 °F 82% 29.05 in 3.0 mi SW 6.9 mph - 0.14 in Rain Light Rain
5:53 PM 53.1 °F - 48.9 °F 86% 29.04 in 5.0 mi SW 8.1 mph 16.1 mph 0.17 in Rain Light Rain
6:53 PM 55.0 °F - 44.1 °F 67% 29.08 in 10.0 mi West 12.7 mph 34.5 mph 0.00 in   Mostly Cloudy
7:53 PM 41.0 °F 32.5 °F 28.0 °F 60% 29.21 in 10.0 mi West 17.3 mph 40.3 mph N/A   Partly Cloudy
8:53 PM 35.1 °F 24.1 °F 23.0 °F 61% 29.28 in 10.0 mi WNW 19.6 mph 40.3 mph N/A   Mostly Cloudy
9:13 PM 33.8 °F 26.4 °F 19.4 °F 56% 29.32 in 10.0 mi North 9.2 mph 31.1 mph N/A   Mostly Cloudy
9:53 PM 30.0 °F 19.1 °F 16.0 °F 56% 29.39 in 10.0 mi NNW 15.0 mph 35.7 mph 0.00 in   Mostly Cloudy
11:53 PM 26.1 °F 16.8 °F 12.9 °F 58% 29.49 in 10.0 mi North 9.2 mph 25.3 mph 0.00 in   Partly Cloudy